Location: Gallio
(45.8833°N, 11.5500°E)
Time: 22:32:38
(UTC+00:00)

Daily predictions for brighter satellites

Satellite Brightness Start Highest point End
(mag) Time Altitude Azimuth Time Altitude Azimuth Time Altitude Azimuth
NOSS 3-2 (A) 4.2 17:21:59 10° NW 17:29:23 66° NE 17:37:45 10° SE
Meteor 1-21 4.4 17:31:34 10° NNW 17:37:11 82° W 17:42:46 10° S
Cosmos 2151 Rocket 4.4 17:34:49 10° SSE 17:38:42 30° E 17:42:39 10° NNE
Lacrosse 5 rocket 3.5 17:36:33 10° NW 17:39:43 19° N 17:42:58 10° NE
Cosmos 1975 Rocket 3.2 17:36:09 10° N 17:40:29 81° W 17:44:48 10° S
HJ-1C 4.1 17:41:08 10° SE 17:44:07 32° ENE 17:47:07 10° N
COSMO-SKYMED 1 3.3 17:45:53 10° N 17:50:10 59° WNW 17:54:26 10° SSW
Shenzhou-11 Module 3.6 17:50:07 10° S 17:50:50 11° SSE 17:51:32 10° SE
Ariane Rocket 4.1 17:48:35 10° ESE 17:52:40 25° ENE 17:56:47 10° N
Nadezhda 4 Rocket 4.2 17:47:24 10° N 17:53:16 46° ENE 17:59:08 10° SSE
H-2A R/B 2.2 17:48:35 10° SE 17:53:24 52° ENE 17:58:25 10° N
SJ 16-02 4.3 17:52:49 10° W 17:55:28 16° NW 17:58:08 10° NNW
Exosat Rocket 4.2 17:52:44 10° SSE 17:57:36 34° ESE 18:02:05 10° NE
Cosmos 2263 Rocket 3.9 17:53:38 10° WSW 17:58:44 35° NW 18:03:53 10° NNE
USA 116 3.6 17:56:44 10° NNE 18:00:25 68° ESE 18:04:34 10° S
COSMOS 2406 4.4 17:57:42 10° N 18:02:19 25° NE 18:05:50 14° E
Cosmos 1844 Rocket 2.6 17:57:28 10° S 18:02:57 63° ESE 18:08:29 10° NNE
Cosmos 1072 Rocket 4.5 17:56:47 10° S 18:03:03 79° E 18:09:26 10° N
Cosmos 372 Rocket 4.3 17:59:35 10° SSW 18:04:49 72° WNW 18:10:03 10° NNE
Cosmos 1707 2.9 18:01:46 10° NNW 18:05:35 73° W 18:09:24 10° S
Cosmos 1626 3.8 18:04:40 10° NNE 18:06:59 16° ENE 18:07:28 15° E
Cosmos 2278 Rocket 4.1 18:10:00 11° ENE 18:10:00 11° ENE 18:10:22 10° ENE
NOSS 3-2 (C) 4.1 18:00:11 10° NW 18:07:39 71° NE 18:16:07 10° SE
CZ-2C R/B 3.8 18:07:37 10° SSW 18:07:57 10° SSW 18:08:16 10° SSW
Cosmos 1844 3.7 18:04:50 10° S 18:10:24 59° ESE 18:15:56 10° NNE
Cosmos 2034 Rocket 4.1 18:04:20 10° S 18:10:34 61° E 18:16:47 10° NNE
NOSS 3-4 (A) 3.9 18:06:38 10° S 18:11:55 35° ESE 18:17:27 10° NE
ISS -2.5 18:08:47 10° W 18:11:57 37° NNW 18:14:49 12° NE
NOSS 3-4 (C) 3.9 18:06:46 10° S 18:12:01 35° ESE 18:17:33 10° NE
USA 186 2.8 18:11:04 20° ESE 18:12:29 28° ENE 18:15:21 10° N
Meteor 2-5 Rocket 4.3 18:08:13 10° N 18:13:28 37° ENE 18:18:15 12° SE
Meteor 1-12 Rocket 4.3 18:08:07 10° S 18:14:00 88° W 18:19:49 10° N
Lacrosse 4 Rocket 3.6 18:14:00 10° NNE 18:15:17 11° NE 18:16:33 10° NE
Cosmos 1300 Rocket 3.8 18:14:55 10° SSW 18:19:19 76° W 18:23:47 10° N
Okean 1 Rocket 3.5 18:18:22 10° SSE 18:22:33 40° E 18:26:45 10° NNE
Resurs 01 Rocket 3.4 18:25:52 16° ENE 18:26:04 16° ENE 18:28:42 10° NNE
Cosmos 2298 Rocket 4.4 18:20:48 10° SSW 18:26:06 71° WNW 18:31:27 10° NNE
SL-14 R/B 4.5 18:22:55 10° NNE 18:26:09 23° ENE 18:26:27 23° E
CENTAUR R/B 3.2 18:18:40 10° NW 18:26:46 83° NE 18:34:46 14° SE
Cosmos 1833 Rocket 3.8 18:23:04 10° N 18:27:55 28° NE 18:30:12 21° E
CSL-04 Rocket 4.1 18:26:07 10° S 18:31:31 65° WSW 18:37:01 10° NNW
Cosmos 1766 3.6 18:29:51 10° SSE 18:33:33 42° E 18:37:18 10° NNE
Okean 2 Rocket 4.0 18:29:32 10° SSW 18:33:55 53° WNW 18:38:18 10° N
YAOGAN 1 4.3 18:30:20 10° SSW 18:34:17 34° W 18:38:16 10° NNW
ATLAS 2AS CENTAUR R/B 3.1 18:26:46 10° S 18:34:20 52° ESE 18:41:56 10° NE
Cosmos 1025 Rocket 3.8 18:30:42 10° NNW 18:34:59 54° W 18:39:16 10° S
Cosmos 1634 Rocket 4.2 18:32:34 10° SSE 18:38:21 44° E 18:44:11 10° NNE
ATLAS 3B R/B 3.3 18:32:29 10° NNW 18:38:57 42° NE 18:42:35 25° E
SPOT 3 Rocket 4.4 18:40:10 28° E 18:41:30 31° ENE 18:46:00 10° N
Abrixas rocket 1.7 18:39:08 10° WNW 18:41:58 71° SSW 18:42:11 66° SSE
CREW DRAGON DEMO-1 DEB 2.7 18:40:52 10° WNW 18:43:54 75° SSW 18:44:16 63° SSE
Cosmos 1536 Rocket 4.2 18:40:24 10° NNW 18:44:48 57° W 18:49:10 10° S
Cosmos 1125 Rocket 3.7 18:41:25 10° SSW 18:46:44 75° WNW 18:52:04 10° NNE
EP 2 4.4 18:45:07 10° SW 18:48:06 85° SE 18:48:34 60° NE
Resurs 1-3 4.2 18:48:54 35° E 18:49:15 35° ENE 18:53:16 10° N
SJ-6B 2.6 18:48:31 45° SE 18:49:26 62° ENE 18:53:12 10° N
Cosmos 1892 Rocket 4.2 18:47:37 10° N 18:51:24 34° ENE 18:51:24 34° ENE
CZ-4 R/B 4.3 18:49:05 10° SW 18:52:04 19° W 18:55:04 10° NW
Cosmos 2195 Rocket 4.4 18:48:56 10° N 18:55:12 74° E 19:00:07 17° SSE
Cosmos 1627 Rocket 4.5 18:50:24 10° N 18:56:48 70° E 19:01:24 20° SSE
Cosmos 1674 3.3 18:53:23 10° NNW 18:57:10 56° W 19:00:17 14° S
Cosmos 2285 Rocket 4.0 18:51:06 10° SSW 18:57:25 82° WNW 19:03:49 10° NNE
Cosmos 2026 Rocket 4.0 18:51:42 10° N 18:58:04 67° E 19:02:16 22° SSE
Cosmos 1092 Rocket 3.9 18:52:03 10° N 18:58:16 86° E 19:04:17 11° S
MOS 1 Rocket 4.2 18:58:58 10° N 19:03:08 44° WNW 19:07:12 10° SW
FREGAT/IRIS 4.3 19:04:41 24° NNW 19:04:41 24° NNW 19:05:54 10° NNW
Cosmos 1428 Rocket 4.4 19:00:21 10° N 19:06:38 73° E 19:10:06 28° SSE
TSX-5 3.9 19:04:52 10° SSW 19:08:41 85° WNW 19:13:39 10° NNE
ARGOS 4.1 19:04:22 10° S 19:09:30 47° W 19:14:42 10° NNW
CZ-2C R/B 2.7 19:07:53 10° NNE 19:13:30 87° WNW 19:19:08 10° SSW
Cosmos 1340 Rocket 3.4 19:15:11 44° NNE 19:15:11 44° NNE 19:18:03 10° NNE
Cosmos 2279 Rocket 4.1 19:12:59 40° SE 19:14:51 53° E 19:20:55 10° NNE
Cosmos 1733 3.4 19:13:48 27° SSW 19:15:46 67° W 19:19:35 10° N
MOS 1 4.4 19:13:05 23° S 19:16:48 77° WSW 19:22:32 10° NNW
Lacrosse 5 rocket 3.1 19:16:27 10° NW 19:20:08 25° NNE 19:20:43 24° NNE
Cosmos 2082 Rocket 2.8 19:15:50 10° NNW 19:21:06 39° NE 19:21:17 39° ENE
Cosmos 2098 Rocket 4.3 19:15:00 10° N 19:21:18 42° ENE 19:21:19 42° ENE
DMSP B5D2-2 4.1 19:18:00 10° NNE 19:23:20 83° WNW 19:28:37 10° SSW
BREEZE-M DEB (TANK) 4.3 19:20:23 10° W 19:24:05 40° SSW 19:27:36 28° SSE
BREEZE-M R/B 3.6 19:16:02 10° WSW 19:24:12 67° NNW 19:24:25 65° N
OBJECT-B 2.6 19:28:48 28° NNW 19:28:48 28° NNW 19:30:30 10° NNW
Cosmos 2142 Rocket 4.3 19:24:37 24° S 19:28:33 77° E 19:34:46 10° N
Ariane Rocket 3.9 19:28:06 20° SSW 19:31:22 47° W 19:36:17 10° NNW
Milstar 3 Cent rocket 4.3 19:30:27 10° SW 19:32:39 13° SSW 19:32:39 13° SSW
H-2A R/B 4.3 19:29:25 10° SW 19:33:11 21° W 19:37:02 10° NW
USA 234 4.4 19:38:13 25° S 19:38:13 25° S 19:41:06 10° SSW
Terra 4.2 19:42:51 11° NNE 19:42:51 11° NNE 19:43:19 10° NNE
Cosmos 1626 3.5 19:38:58 10° NNW 19:42:02 36° WNW 19:42:02 36° WNW
Okean 1-7 Rocket 4.2 19:38:18 10° N 19:41:51 53° N 19:41:51 53° N
USA 186 4.5 19:42:34 16° WSW 19:43:13 17° W 19:45:28 10° NW
COSMOS 2406 3.4 19:41:29 10° NNW 19:47:06 65° WSW 19:47:56 57° SSW
ISS -1.2 19:46:17 10° WNW 19:47:46 21° NW 19:47:46 21° NW
Cosmos 2278 Rocket 2.2 19:45:07 10° SSW 19:51:32 69° NNE 19:56:29 10° NNE
Lacrosse 4 Rocket 3.0 19:50:41 10° NNW 19:52:52 30° NNW 19:52:52 30° NNW
Cosmos 909 Rocket 4.0 19:53:33 10° NNW 19:59:55 69° NE 19:59:55 69° NE
Cosmos 2266 Rocket 4.2 19:55:37 10° N 20:00:33 55° NNE 20:00:33 55° NNE
Resurs 01 Rocket 2.8 20:03:26 41° NW 20:03:26 41° NW 20:06:30 10° NNW
NOSS 3-4 (A) 4.2 19:56:48 10° WSW 20:02:33 50° NW 20:08:47 10° NNE
NOSS 3-4 (C) 4.2 19:56:53 10° WSW 20:02:39 50° NW 20:08:53 10° NNE
Meteor 2-19 Rocket 4.4 19:57:23 10° NNW 20:03:31 77° W 20:03:47 75° SW
Cosmos 1833 Rocket 3.2 20:06:39 10° NW 20:11:54 54° W 20:11:54 54° W
Cosmos 2251 Rocket 4.2 20:09:40 10° NNW 20:13:44 52° NNW 20:13:44 52° NNW
ATLAS 2AS CENTAUR R/B 3.8 20:17:48 10° WSW 20:25:29 50° NW 20:33:05 10° NNE
ATLAS 3B R/B 3.1 20:23:10 10° NW 20:29:50 54° WSW 20:29:50 54° WSW
Lacrosse 5 rocket 4.3 20:55:25 10° NW 20:56:20 16° NW 20:56:20 16° NW
Cosmos 2082 Rocket 3.9 21:00:03 10° NW 21:03:08 27° WNW 21:03:08 27° WNW
SL-16 R/B 4.5 23:50:37 23° NNE 23:50:37 23° NNE 23:53:18 10° N
